{"data":{"norad_id":55643,"intl_designator":"2023-021R","name":"STARLINK-5483","alt_names":[],"object_type":"PAYLOAD","status":"ACTIVE","operator":null,"country":"US","launch_date":"2023-02-17","launch_site_code":"AFWTR","launch_vehicle":null,"mission":null,"orbit_class":"UNKNOWN","rcs_meters":null,"size_class":null,"mass_kg":null,"dimensions":null,"purposes":["comms"],"wikipedia_slug":null,"has_3d_model":false,"image_url":null,"decayed_at":null,"tle_current":{"epoch":"2026-09-20T21:00:04.891968Z","epoch_age_seconds":70598,"freshness":"FRESH","line1":"1 55643U 23021R   26263.87505662  .00002694  00000+0  23359-3 0  9994","line2":"2 55643  69.9994  52.5044 0002887 273.7659  86.3170 14.98317304198020","mean_motion":14.98317304,"eccentricity":0.0002887,"inclination_deg":69.9994,"raan_deg":52.5044,"arg_perigee_deg":273.7659,"mean_anomaly_deg":86.317,"bstar":0.00023359,"rev_number":19802,"period_min":96.107813488884,"perigee_km":570.08862053191,"apogee_km":574.1016845768,"semimajor_km":6950.2321525544,"source":"CELESTRAK","updated_at":"2026-09-21T09:00:33.283379Z"}}}